Tracking 25953 objects as of 16-Aug-2022
HD Live streaming from Space Station
objects crossing your sky now

STARLINK-3952

Track STARLINK-3952 now!
10-day predictions
STARLINK-3952 is classified as:


NORAD ID: 52534
Int'l Code: 2022-051B
Perigee: 545.3 km
Apogee: 548.5 km
Inclination: 53.2 °
Period: 95.4 minutes
Semi major axis: 6917 km
RCS: Unknown
Launch date: May 13, 2022
Source: United States (US)
Launch site: AIR FORCE WESTERN TEST RANGE (AFWTR)
aabbcc
Your satellite tracking list
Your tracking list is empty




NASA's NSSDC Master Catalog

Two Line Element Set (TLE):
1 52534U 22051B   22228.00001157  .00002261  00000-0  16015-3 0  9996
2 52534  53.2172 212.6421 0002273  48.6114 147.9331 15.08832985 15000
Source of the keplerian elements: AFSPC